This demonstration page uses our WeatherBlox Daily Observations layout. Learn more.

36.17497, -115.13722

Hourly Observations for October 10, 2018

Temp ( °F °C ) Dew Point ( °F °C ) Humidity (%) Winds ( mph kmh ) Pressure ( in mb ) Visibility ( mi km ) Precip ( " mm )
12:53 am 00:53 Clear 66 18.9 31 -0.6 27 27 NNE 5 7 29.68 1005 10 16.09344 0 0
1:53 am 01:53 Clear 67 19.4 29 -1.7 24 24 NW 7 11 29.71 1006 10 16.09344 0 0
2:53 am 02:53 Clear 64 17.8 29 -1.7 27 27 NNW 6 9 29.71 1006 10 16.09344 0 0
3:53 am 03:53 Clear 62 16.7 33 0.6 34 34 Calm 29.74 1007 10 16.09344 0 0
4:53 am 04:53 Clear 62 16.7 34 1.1 35 35 E 10 17 29.74 1007 10 16.09344 0 0
5:53 am 05:53 Clear 60 15.6 30 -1.1 32 32 N 7 11 29.77 1008 10 16.09344 0 0
6:53 am 06:53 Sunny 61 16.1 32 0 34 34 Calm 29.8 1009 10 16.09344 0 0
7:53 am 07:53 Sunny 63 17.2 33 0.6 33 33 Calm 29.83 1010 10 16.09344 0 0
8:53 am 08:53 Sunny 65 18.3 34 1.1 32 32 Calm 29.83 1010 10 16.09344 0 0
9:53 am 09:53 Sunny 69 20.6 32 0 25 25 NE 3 6 29.83 1010 10 16.09344 0 0
10:53 am 10:53 Sunny 71 21.7 31 -0.6 23 23 ESE 3 6 29.83 1010 10 16.09344 0 0
11:53 am 11:53 Sunny 72 22.2 34 1.1 25 25 SSE 8 13 29.83 1010 10 16.09344 0 0
12:53 pm 12:53 Sunny 73 22.8 34 1.1 24 24 Calm 29.8 1009 10 16.09344 0 0
1:53 pm 13:53 Sunny 75 23.9 34 1.1 22 22 SSE 7 11 29.77 1008 10 16.09344 0 0
2:53 pm 14:53 Sunny 76 24.4 35 1.7 23 23 SSE 7 11 29.74 1007 10 16.09344 0 0
3:53 pm 15:53 Mostly Cloudy 77 25 37 2.8 24 24 SE 9 15 29.71 1006 10 16.09344 0 0
4:53 pm 16:53 Sunny 77 25 40 4.4 26 26 SE 15 24 29.71 1006 10 16.09344 0 0
5:53 pm 17:53 Sunny 76 24.4 38 3.3 25 25 SE 14 22 29.71 1006 10 16.09344 0 0
6:53 pm 18:53 Clear 74 23.3 35 1.7 24 24 ESE 16 26 29.71 1006 10 16.09344 0 0
7:53 pm 19:53 Clear 74 23.3 34 1.1 23 23 W 8 13 29.71 1006 10 16.09344 0 0
8:53 pm 20:53 Clear 72 22.2 33 0.6 24 24 SSW 9 15 29.74 1007 10 16.09344 0 0
9:53 pm 21:53 Clear 70 21.1 33 0.6 26 26 SSW 5 7 29.74 1007 10 16.09344 0 0
10:53 pm 22:53 Clear 69 20.6 32 0 25 25 SSW 8 13 29.77 1008 10 16.09344 0 0
11:53 pm 23:53 Clear 67 19.4 32 0 27 27 WSW 3 6 29.74 1007 10 16.09344 0 0

Powered by AerisWeather